�������l�o���
Date,Time,MP-1(��Sv/h),MP-2(��Sv/h),MP-3(��Sv/h),MP-4(��Sv/h),MP-5(��Sv/h),MP-6(��Sv/h),MP-7(��Sv/h),MP-8(��Sv/h),����,����(m/s),���J
2022/06/24,00:00,0.581,0.857,0.541,1.027,0.728,0.344,0.596,0.562,��,8.0,��
2022/06/24,00:10,0.582,0.858,0.541,1.027,0.730,0.344,0.597,0.563,��,7.6,��
2022/06/24,00:20,0.581,0.858,0.540,1.030,0.728,0.344,0.598,0.563,��,8.7,��
2022/06/24,00:30,0.581,0.858,0.540,1.029,0.729,0.345,0.597,0.563,��,9.7,��
2022/06/24,00:40,0.582,0.859,0.541,1.027,0.727,0.344,0.599,0.563,��,6.7,��
2022/06/24,00:50,0.582,0.859,0.541,1.025,0.728,0.345,0.596,0.565,��,8.9,��
2022/06/24,01:00,0.583,0.859,0.541,1.029,0.728,0.343,0.596,0.563,��,8.8,��
2022/06/24,01:10,0.582,0.858,0.540,1.029,0.728,0.344,0.597,0.563,��,9.1,��
2022/06/24,01:20,0.583,0.861,0.541,1.028,0.727,0.345,0.598,0.563,��,7.4,��
2022/06/24,01:30,0.582,0.860,0.540,1.026,0.729,0.343,0.597,0.563,��,7.3,��
2022/06/24,01:40,0.582,0.857,0.540,1.028,0.728,0.344,0.598,0.563,��,7.8,��
2022/06/24,01:50,0.582,0.857,0.540,1.026,0.726,0.344,0.597,0.564,��,6.5,��
2022/06/24,02:00,0.582,0.856,0.541,1.030,0.726,0.344,0.598,0.562,��쐼,6.0,��
2022/06/24,02:10,0.584,0.857,0.541,1.029,0.726,0.342,0.599,0.563,��,7.5,��
2022/06/24,02:20,0.581,0.858,0.541,1.030,0.728,0.344,0.600,0.563,��,6.6,��
2022/06/24,02:30,0.582,0.858,0.542,1.029,0.731,0.343,0.598,0.563,��,7.4,��
2022/06/24,02:40,0.584,0.859,0.541,1.030,0.729,0.345,0.598,0.564,��,7.9,��
2022/06/24,02:50,0.582,0.858,0.541,1.029,0.728,0.344,0.599,0.564,��,6.9,��
2022/06/24,03:00,0.583,0.858,0.540,1.027,0.728,0.345,0.597,0.564,��,8.0,��
2022/06/24,03:10,0.582,0.858,0.540,1.029,0.729,0.344,0.598,0.562,��,7.7,��
2022/06/24,03:20,0.581,0.858,0.539,1.028,0.729,0.345,0.598,0.562,��,10.2,��
2022/06/24,03:30,0.584,0.857,0.539,1.028,0.729,0.345,0.597,0.564,��,11.6,��
2022/06/24,03:40,0.582,0.856,0.538,1.029,0.727,0.346,0.598,0.562,��,12.4,��
2022/06/24,03:50,0.583,0.856,0.538,1.029,0.728,0.344,0.598,0.562,��,11.6,��
2022/06/24,04:00,0.583,0.857,0.539,1.030,0.728,0.345,0.597,0.564,��,11.7,��
2022/06/24,04:10,0.583,0.856,0.538,1.030,0.726,0.344,0.597,0.562,��,11.8,��
2022/06/24,04:20,0.581,0.859,0.540,1.028,0.727,0.344,0.596,0.563,��,10.2,��
2022/06/24,04:30,0.582,0.857,0.540,1.028,0.726,0.343,0.596,0.562,��,10.0,��
2022/06/24,04:40,0.582,0.858,0.541,1.029,0.727,0.344,0.598,0.562,��,9.5,��
2022/06/24,04:50,0.582,0.857,0.541,1.027,0.728,0.344,0.596,0.562,��,9.2,��
2022/06/24,05:00,0.581,0.857,0.539,1.027,0.726,0.345,0.598,0.563,��쓌,10.0,��
2022/06/24,05:10,0.582,0.857,0.538,1.029,0.727,0.343,0.596,0.563,��,8.9,��
2022/06/24,05:20,0.582,0.857,0.540,1.028,0.730,0.344,0.596,0.563,��,8.0,��
2022/06/24,05:30,0.581,0.857,0.541,1.031,0.729,0.345,0.597,0.563,��,7.5,��
2022/06/24,05:40,0.583,0.857,0.539,1.028,0.728,0.345,0.597,0.562,��,8.0,��
2022/06/24,05:50,0.581,0.858,0.540,1.027,0.729,0.343,0.597,0.563,��,10.5,��
2022/06/24,06:00,0.582,0.857,0.542,1.026,0.726,0.344,0.596,0.562,��,11.7,��
2022/06/24,06:10,0.581,0.859,0.542,1.029,0.729,0.344,0.596,0.561,��,12.4,��
2022/06/24,06:20,0.581,0.858,0.541,1.027,0.728,0.345,0.595,0.562,��,11.6,��
2022/06/24,06:30,0.582,0.859,0.543,1.027,0.729,0.345,0.597,0.561,��,11.0,��
2022/06/24,06:40,0.583,0.859,0.541,1.029,0.729,0.345,0.598,0.563,��,10.8,��
2022/06/24,06:50,0.584,0.860,0.540,1.030,0.728,0.344,0.596,0.562,��,9.0,��
2022/06/24,07:00,0.582,0.858,0.541,1.031,0.729,0.344,0.596,0.562,��,7.8,��
2022/06/24,07:10,0.582,0.859,0.541,1.030,0.730,0.346,0.597,0.560,��,8.8,��
2022/06/24,07:20,0.582,0.859,0.541,1.030,0.728,0.344,0.596,0.562,��,10.0,��
2022/06/24,07:30,0.583,0.857,0.541,1.028,0.730,0.344,0.597,0.564,��,10.8,��
2022/06/24,07:40,0.583,0.857,0.540,1.028,0.730,0.345,0.598,0.562,��,11.6,��
2022/06/24,07:50,0.582,0.856,0.542,1.029,0.729,0.346,0.597,0.561,��,10.9,��
2022/06/24,08:00,0.584,0.857,0.542,1.028,0.728,0.344,0.598,0.562,��,8.8,��
2022/06/24,08:10,0.583,0.856,0.542,1.029,0.731,0.344,0.596,0.561,��,10.2,��
2022/06/24,08:20,0.583,0.857,0.539,1.029,0.727,0.343,0.596,0.562,��,6.9,��
2022/06/24,08:30,0.584,0.854,0.541,1.030,0.730,0.344,0.597,0.561,��쓌,8.5,��
2022/06/24,08:40,0.583,0.855,0.539,1.028,0.729,0.345,0.596,0.563,��,8.4,��
2022/06/24,08:50,0.586,0.859,0.539,1.031,0.730,0.345,0.596,0.562,��,9.1,�L
2022/06/24,09:00,0.586,0.857,0.541,1.027,0.729,0.343,0.597,0.562,��,9.5,��
2022/06/24,09:10,0.585,0.855,0.542,1.029,0.731,0.344,0.596,0.561,��,9.1,��
2022/06/24,09:20,0.584,0.857,0.544,1.027,0.730,0.346,0.595,0.562,��,7.4,��
2022/06/24,09:30,0.586,0.857,0.541,1.028,0.731,0.345,0.597,0.562,��,7.6,��
2022/06/24,09:40,0.585,0.856,0.540,1.027,0.731,0.345,0.597,0.563,��,8.5,��
2022/06/24,09:50,0.587,0.854,0.542,1.026,0.730,0.344,0.595,0.561,��,8.0,��
2022/06/24,10:00,0.583,0.856,0.541,1.027,0.731,0.344,0.597,0.561,��,10.2,��
2022/06/24,10:10,0.584,0.857,0.541,1.026,0.730,0.345,0.597,0.562,��,11.3,��
2022/06/24,10:20,0.586,0.856,0.540,1.029,0.730,0.344,0.596,0.561,��,11.3,��
2022/06/24,10:30,0.585,0.858,0.542,1.027,0.729,0.346,0.596,0.562,��,10.6,��
2022/06/24,10:40,0.584,0.857,0.542,1.029,0.730,0.345,0.597,0.562,��,11.3,��
2022/06/24,10:50,0.584,0.858,0.542,1.030,0.730,0.347,0.597,0.562,��,10.2,��
2022/06/24,11:00,0.585,0.856,0.540,1.028,0.731,0.347,0.598,0.560,��,11.3,��
2022/06/24,11:10,0.584,0.858,0.543,1.027,0.729,0.346,0.597,0.562,��쓌,10.8,��
2022/06/24,11:20,0.584,0.860,0.541,1.028,0.731,0.346,0.598,0.562,��,11.6,��
2022/06/24,11:30,0.585,0.856,0.541,1.029,0.731,0.346,0.596,0.562,��,12.2,��
2022/06/24,11:40,0.585,0.858,0.541,1.027,0.733,0.346,0.597,0.563,��,11.1,��
2022/06/24,11:50,0.585,0.860,0.541,1.029,0.733,0.347,0.596,0.564,��,11.3,��
2022/06/24,12:00,0.585,0.860,0.543,1.028,0.733,0.346,0.597,0.563,��,9.8,��
2022/06/24,12:10,0.584,0.860,0.542,1.029,0.731,0.346,0.598,0.562,��,10.8,��
2022/06/24,12:20,0.585,0.861,0.541,1.028,0.733,0.348,0.595,0.562,��,10.7,��
2022/06/24,12:30,0.585,0.862,0.543,1.028,0.733,0.347,0.597,0.563,��,8.4,��
2022/06/24,12:40,0.587,0.861,0.543,1.030,0.732,0.348,0.598,0.563,��,6.0,��
2022/06/24,12:50,0.586,0.861,0.543,1.027,0.734,0.347,0.597,0.562,��,7.4,��
2022/06/24,13:00,0.587,0.860,0.542,1.029,0.736,0.344,0.597,0.562,��,6.6,��
2022/06/24,13:10,0.587,0.860,0.544,1.031,0.731,0.347,0.597,0.562,��,7.4,��
2022/06/24,13:20,0.588,0.859,0.543,1.030,0.733,0.348,0.597,0.563,��,8.3,��
2022/06/24,13:30,0.589,0.858,0.544,1.029,0.732,0.346,0.598,0.563,��,7.7,��
2022/06/24,13:40,0.587,0.858,0.543,1.033,0.735,0.348,0.598,0.563,��쓌,7.8,��
2022/06/24,13:50,0.587,0.861,0.544,1.033,0.736,0.348,0.598,0.562,��쓌,6.3,��
2022/06/24,14:00,0.585,0.863,0.544,1.031,0.737,0.348,0.599,0.563,��,7.5,��
2022/06/24,14:10,0.586,0.863,0.544,1.033,0.734,0.348,0.598,0.563,��,5.5,��
2022/06/24,14:20,0.585,0.863,0.545,1.031,0.737,0.350,0.598,0.564,��,5.7,��
2022/06/24,14:30,0.585,0.863,0.547,1.033,0.737,0.348,0.598,0.565,��,5.2,��
2022/06/24,14:40,0.588,0.861,0.545,1.032,0.736,0.350,0.599,0.564,��,6.1,��
2022/06/24,14:50,0.588,0.864,0.545,1.031,0.736,0.350,0.598,0.564,��,6.2,��
2022/06/24,15:00,0.586,0.862,0.546,1.033,0.735,0.348,0.599,0.564,��,6.4,��
2022/06/24,15:10,0.588,0.862,0.546,1.032,0.736,0.348,0.599,0.564,��,8.0,��
2022/06/24,15:20,0.587,0.866,0.546,1.032,0.737,0.347,0.598,0.564,��,6.7,��
2022/06/24,15:30,0.588,0.862,0.545,1.033,0.734,0.347,0.598,0.564,��,7.6,��
2022/06/24,15:40,0.588,0.865,0.544,1.029,0.737,0.347,0.598,0.563,��,6.6,��
2022/06/24,15:50,0.589,0.866,0.546,1.033,0.737,0.348,0.598,0.565,��,5.9,��
2022/06/24,16:00,0.586,0.865,0.545,1.032,0.737,0.347,0.598,0.564,��,5.6,��
2022/06/24,16:10,0.589,0.867,0.543,1.032,0.739,0.348,0.597,0.564,��,7.0,��
2022/06/24,16:20,0.588,0.866,0.546,1.033,0.739,0.349,0.598,0.565,��,9.5,��
2022/06/24,16:30,0.588,0.866,0.544,1.033,0.735,0.351,0.599,0.563,��,9.4,��
2022/06/24,16:40,0.588,0.864,0.544,1.033,0.737,0.349,0.598,0.564,��,7.9,��
2022/06/24,16:50,0.589,0.865,0.545,1.034,0.736,0.348,0.597,0.564,��,6.8,��
2022/06/24,17:00,0.589,0.864,0.545,1.034,0.738,0.349,0.597,0.563,��,6.7,��
2022/06/24,17:10,0.589,0.867,0.545,1.032,0.735,0.350,0.598,0.563,��,7.5,��
2022/06/24,17:20,0.588,0.866,0.544,1.035,0.735,0.349,0.598,0.563,��,7.0,��
2022/06/24,17:30,0.589,0.865,0.545,1.035,0.737,0.350,0.598,0.564,��,6.9,��
2022/06/24,17:40,0.588,0.864,0.545,1.034,0.736,0.349,0.597,0.563,��,5.2,��
2022/06/24,17:50,0.587,0.863,0.546,1.034,0.738,0.349,0.599,0.564,��,5.9,��
2022/06/24,18:00,0.592,0.864,0.547,1.034,0.738,0.350,0.598,0.564,��쐼,4.6,��
2022/06/24,18:10,0.590,0.864,0.546,1.034,0.739,0.349,0.600,0.563,��,4.4,��
2022/06/24,18:20,0.591,0.863,0.546,1.032,0.737,0.351,0.598,0.564,��,4.5,��
2022/06/24,18:30,0.591,0.865,0.547,1.034,0.736,0.350,0.598,0.564,��쓌,3.3,��
2022/06/24,18:40,0.591,0.865,0.544,1.035,0.739,0.349,0.599,0.565,��,3.0,��
2022/06/24,18:50,0.593,0.865,0.547,1.034,0.739,0.349,0.598,0.566,���k��,2.2,��
2022/06/24,19:00,0.591,0.864,0.544,1.036,0.737,0.349,0.598,0.565,�k,5.2,��
2022/06/24,19:10,0.592,0.868,0.547,1.034,0.738,0.349,0.599,0.565,�k,7.4,��
2022/06/24,19:20,0.591,0.866,0.547,1.039,0.738,0.351,0.600,0.567,�k,6.8,��
2022/06/24,19:30,0.597,0.869,0.547,1.037,0.737,0.349,0.598,0.565,�k,6.9,��
2022/06/24,19:40,0.594,0.867,0.547,1.037,0.737,0.349,0.599,0.564,�k,5.5,��
2022/06/24,19:50,0.592,0.866,0.547,1.037,0.739,0.349,0.599,0.566,�k,4.5,��
2022/06/24,20:00,0.593,0.866,0.547,1.036,0.738,0.349,0.599,0.567,�k,3.9,��
2022/06/24,20:10,0.594,0.866,0.546,1.036,0.737,0.350,0.600,0.568,�k�k��,2.5,��
2022/06/24,20:20,0.592,0.866,0.546,1.036,0.737,0.349,0.600,0.566,�k�k��,2.8,��
2022/06/24,20:30,0.595,0.865,0.545,1.036,0.739,0.349,0.599,0.564,�k�k��,3.2,��
2022/06/24,20:40,0.593,0.866,0.545,1.036,0.737,0.349,0.600,0.565,�k�k��,3.8,��
2022/06/24,20:50,0.595,0.867,0.546,1.036,0.739,0.348,0.599,0.566,�k�k��,3.5,��
2022/06/24,21:00,0.593,0.867,0.547,1.037,0.739,0.349,0.599,0.565,�k,1.9,��
2022/06/24,21:10,0.594,0.866,0.547,1.035,0.736,0.349,0.598,0.566,�k�k��,0.9,��
2022/06/24,21:20,0.594,0.867,0.547,1.036,0.738,0.350,0.599,0.566,-,CALM,��
2022/06/24,21:30,0.594,0.866,0.548,1.037,0.738,0.349,0.600,0.567,���k��,0.6,��
2022/06/24,21:40,0.593,0.867,0.546,1.034,0.737,0.349,0.599,0.566,��,0.6,��
2022/06/24,21:50,0.594,0.866,0.547,1.037,0.737,0.349,0.599,0.565,��쐼,0.6,��
2022/06/24,22:00,0.595,0.866,0.548,1.037,0.737,0.349,0.599,0.566,-,CALM,��
2022/06/24,22:10,0.594,0.866,0.547,1.036,0.738,0.350,0.599,0.566,-,CALM,��
2022/06/24,22:20,0.593,0.866,0.546,1.035,0.737,0.349,0.599,0.565,��,0.9,��
2022/06/24,22:30,0.595,0.865,0.547,1.039,0.738,0.350,0.600,0.567,��,1.4,��
2022/06/24,22:40,0.595,0.866,0.548,1.037,0.738,0.348,0.598,0.565,��쐼,1.2,��
2022/06/24,22:50,0.594,0.868,0.546,1.039,0.737,0.348,0.600,0.567,-,CALM,��
2022/06/24,23:00,0.596,0.867,0.548,1.036,0.738,0.349,0.601,0.565,-,CALM,��
2022/06/24,23:10,0.593,0.865,0.546,1.039,0.738,0.351,0.600,0.567,-,CALM,��
2022/06/24,23:20,0.595,0.868,0.546,1.037,0.738,0.350,0.602,0.567,��쓌,1.2,��
2022/06/24,23:30,0.595,0.866,0.546,1.037,0.738,0.350,0.600,0.566,��쓌,0.8,��
2022/06/24,23:40,0.595,0.865,0.549,1.037,0.740,0.351,0.599,0.567,��,0.9,��
2022/06/24,23:50,0.593,0.867,0.547,1.036,0.739,0.348,0.600,0.566,���쐼,0.8,��
